Regional Weather Roundup
Issued by NWS

Home | Current Version | Previous Version | Graphics & Text | Print | Product List | Glossary On
Versions: 1 2 3 4 5 6 7 8 9 10 11 12 13 14 15 16 17 18 19 20 21 22 23 24 25 26 27 28 29 30 31 32 33 34 35 36 37 38 39 40 41 42 43 44 45 46 47 48 49 50
000
ASUS43 KLOT 281509
RWRIL

ILLINOIS REGIONAL WEATHER ROUNDUP
NATIONAL WEATHER SERVICE CHICAGO/ROMEOVILLE IL
1000 AM CDT WED JUN 28 2017

NOTE: "FAIR" INDICATES FEW OR NO CLOUDS BELOW 12,000 FEET WITH NO
SIGNIFICANT WEATHER AND/OR OBSTRUCTIONS TO VISIBILITY.

* THESE STATIONS ARE NOT UNDER NWS QUALITY CONTROL. THEY ALSO MAY NOT
  REPORT WEATHER SUCH AS PRECIPITATION OR FOG.

ILZ001-002-007-009-015-016-024-281600-
NORTHWEST ILLINOIS

CITY           SKY/WX    TMP DP  RH WIND       PRES   REMARKS
MOLINE         CLOUDY    66  62  87 SE10      29.88F
STERLING*      RAIN      62  61  96 SE9       29.93F FOG
SAVANNA*       CLOUDY    64  63  96 SE15      29.88F
$$

ILZ003-004-008-010-011-017-018-281600-
NORTH CENTRAL ILLINOIS

CITY           SKY/WX    TMP DP  RH WIND       PRES   REMARKS
ROCKFORD       HVY RAIN  62  59  90 S12       29.98S FOG
FREEPORT*      RAIN      60  59  96 SE10      29.91F
ROCHELLE*      CLOUDY    61  58  91 SW9       29.99S
DE KALB*       RAIN      61  57  87 SW9       30.01R
PERU*          TSTM      64  57  79 W8        30.02R
$$

ILZ005-006-012>014-019>023-281600-
NORTHEAST ILLINOIS

CITY           SKY/WX    TMP DP  RH WIND       PRES   REMARKS
CHICAGO-OHARE  CLOUDY    68  51  54 S14       29.98F
CHICAGO-MIDWAY CLOUDY    70  52  52 S15G22    29.99F
AURORA         LGT RAIN  64  56  75 S9        30.00S
LANSING*       CLOUDY    69  51  53 S12       30.03S
JOLIET*        CLOUDY    68  55  64 S9        29.99F
WAUKEGAN       LGT RAIN  67  54  63 S17       29.97S
DUPAGE AIRPORT LGT RAIN  64  54  69 S13       29.97F
WHEELING       CLOUDY    67  53  61 S14       29.99F
MORRIS*        CLOUDY    67  54  61 S12       29.98F
ROMEOVILLE*    CLOUDY    66  51  56 S14       29.99F
$$

LMZ740>746-281600-
SOUTHERN LAKE MICHIGAN

STATION/POSITION SKY/WX   TEMP    WIND        PRES    VSBY  WAVE
                          AIR SEA DIR/SP/G                  HT/PER
                          (F)     (DEG/KT/KT) (MB)    (MI)  (FT/S)
SOUTHERN BUOY              64 61  160/ 17/ 21 1015.8          3/ 4
WILMETTE HARBOR            68 63  190/ 16/ 21   N/A           3/ 4
HARRISON CRIB              69     200/ 21/ 22   N/A
BURNHAM HARBOR             69                   N/A
CALUMET HARBOR             69     180/ 13/ 19 1015.7F
BURNS HARBOR               70     180/ 11/ 19 1017.3F
MICHIGAN CITY              68     160/ 15/ 19   N/A
MICHIGAN CITY 6N           68 66  180/ 16/ 19   N/A           2/ 3
ST. JOSEPH                 68 68  190/ 16/ 19 1017.4          2/ 3
$$

ILZ025>027-034>036-040-047-049-050-058-095>099-281600-
WEST-CENTRAL ILLINOIS

CITY           SKY/WX    TMP DP  RH WIND       PRES   REMARKS
QUINCY         CLOUDY    74  64  71 S15G23    29.96R
GALESBURG*     CLOUDY    67  63  87 S10G16    29.93S THUNDER
MACOMB*        CLOUDY    72  63  72 S15G21    29.96F
JACKSONVILLE*  CLOUDY    73  62  69 S14G21    29.99S
PITTSFIELD*    PTSUNNY   74  65  73 S13G23    29.99S
$$

ILZ028>032-037-038-041>044-048-051>054-059>061-281600-
CENTRAL ILLINOIS

CITY           SKY/WX    TMP DP  RH WIND       PRES   REMARKS
PONTIAC        CLOUDY    70  57  63 S16G25    30.00F
BLOOMINGTON    CLOUDY    70  59  68 S17G28    30.01F
DECATUR        CLOUDY    72  57  59 S15       30.04F
PEORIA         CLOUDY    69  61  75 S15G22    29.96F
LACON*         TSTM      67  60  78 SW5       29.95F
LINCOLN*       CLOUDY    72  61  68 S13       30.00F
SPRINGFIELD    CLOUDY    73  61  65 S15G22    30.00F
TAYLORVILLE    CLOUDY    73  61  66 S15       30.04S
$$

ILZ033-039-045-046-055>057-062-063-281600-
EAST-CENTRAL ILLINOIS

CITY           SKY/WX    TMP DP  RH WIND       PRES   REMARKS
CHAMPAIGN      CLOUDY    73  55  53 S14       30.06S
RANTOUL*       CLOUDY    74  56  54 S13G21    30.06S
MATTOON        CLOUDY    72  58  61 S12       30.07F
PARIS*         PTSUNNY   71  58  62 S13       30.09F
$$

ILZ079-100>102-281600-
SOUTHWEST ILLINOIS

CITY           SKY/WX    TMP DP  RH WIND       PRES   REMARKS
ALTON          PTSUNNY   75  64  69 S14       30.04F
BELLEVILLE     MOSUNNY   77  64  64 SW16      30.05F
CAHOKIA*       CLOUDY    79  62  56 S8G18     30.04F HX  80
SPARTA*        MOSUNNY   77  62  61 S10       30.07F
$$

ILZ064>066-069>071-074>076-080>082-084>086-088>090-092>094-281600-
SOUTH-CENTRAL ILLINOIS

CITY           SKY/WX    TMP DP  RH WIND       PRES   REMARKS
CARBONDALE     MOSUNNY   77  63  61 S10       30.07F
CAIRO*         SUNNY     78  63  58 S9        30.08F HX  80
EFFINGHAM*     MOSUNNY   75  59  57 S9        30.10R
MARION         PTSUNNY   77  63  61 S12       30.09S
MT. VERNON     MOSUNNY   77  61  57 S13       30.08F
CENTRALIA*     MOSUNNY   77  62  59 S10       30.07S
SALEM*         CLOUDY    76  59  56 S13       30.08S
METROPOLIS*    MOSUNNY   79  62  56 SE6       30.10S HX  80
$$

ILZ067-068-072-073-078-083-087-091-281600-
SOUTHEAST ILLINOIS

CITY           SKY/WX    TMP DP  RH WIND       PRES   REMARKS
LAWRENCEVILLE  CLOUDY    75  59  57 S14       30.10F
FLORA*         MOSUNNY   78  60  53 S12       30.09F
FAIRFIELD*     MOSUNNY   76  60  57 S6        30.08F
HARRISBURG*    SUNNY     78  62  58 S9        30.09F HX  80
ROBINSON*      CLOUDY    73  58  59 S14       30.10F
CARMI*         MOSUNNY   75  60  60 S8        30.10F
$$

ABBREVIATIONS USED IN REMARKS
   TC - TEMPERATURE IN CELSIUS
  WCI - WIND CHILL INDEX
   HX - HEAT INDEX
  VSB - VISIBILITY
$$





USA.gov is the U.S. government's official web portal to all federal, state and local government web resources and services.